Time,TemperatureF,DewpointF,PressureIn,WindDirection,WindDirectionDegrees,WindSpeedMPH,WindSpeedGustMPH,Humidity,HourlyPrecipIn,Conditions,Clouds,dailyrainin,SoftwareType,DateUTC
2013-01-19 00:09:00,39.5,29.8,29.86,WSW,239,17.0,17.0,68,0.00,,,0.00,Wunderground v.1.15,2013-01-19 05:09:00,
2013-01-19 00:19:00,39.5,29.8,29.86,SW,218,17.0,17.0,68,0.00,,,0.00,Wunderground v.1.15,2013-01-19 05:19:00,
2013-01-19 00:29:00,39.5,29.8,29.85,SW,234,18.0,18.0,68,0.00,,,0.00,Wunderground v.1.15,2013-01-19 05:29:00,
2013-01-19 00:39:00,39.5,30.2,29.85,WSW,237,18.0,20.0,69,0.00,,,0.00,Wunderground v.1.15,2013-01-19 05:39:00,
2013-01-19 00:49:00,39.6,30.3,29.85,WSW,245,19.0,19.0,69,0.00,,,0.00,Wunderground v.1.15,2013-01-19 05:49:00,
2013-01-19 00:59:00,39.6,30.3,29.85,SW,227,19.0,21.0,69,0.00,,,0.00,Wunderground v.1.15,2013-01-19 05:59:00,
2013-01-19 01:09:00,39.5,30.2,29.85,SW,232,18.0,18.0,69,0.00,,,0.00,Wunderground v.1.15,2013-01-19 06:09:00,
2013-01-19 01:19:00,39.3,30.3,29.84,WSW,245,18.0,18.0,70,0.00,,,0.00,Wunderground v.1.15,2013-01-19 06:19:00,
2013-01-19 01:29:00,39.2,30.2,29.84,SW,234,17.0,18.0,70,0.00,,,0.00,Wunderground v.1.15,2013-01-19 06:29:00,
2013-01-19 01:39:00,39.3,30.3,29.84,SW,223,18.0,21.0,70,0.00,,,0.00,Wunderground v.1.15,2013-01-19 06:39:00,
2013-01-19 01:49:00,39.5,30.5,29.84,WSW,246,18.0,20.0,70,0.00,,,0.00,Wunderground v.1.15,2013-01-19 06:49:00,
2013-01-19 01:59:00,39.2,30.6,29.84,WSW,237,17.0,17.0,71,0.00,,,0.00,Wunderground v.1.15,2013-01-19 06:59:00,
2013-01-19 02:09:00,39.3,30.7,29.84,WSW,238,18.0,19.0,71,0.00,,,0.00,Wunderground v.1.15,2013-01-19 07:09:00,
2013-01-19 02:19:00,39.2,30.9,29.84,SW,227,18.0,18.0,72,0.00,,,0.00,Wunderground v.1.15,2013-01-19 07:19:00,
2013-01-19 02:29:00,38.9,31.0,29.85,WSW,238,16.0,16.0,73,0.00,,,0.00,Wunderground v.1.15,2013-01-19 07:29:00,
2013-01-19 02:39:00,38.9,31.0,29.85,WSW,237,16.0,18.0,73,0.00,,,0.00,Wunderground v.1.15,2013-01-19 07:39:00,
2013-01-19 02:49:00,39.1,31.2,29.85,SW,227,17.0,17.0,73,0.00,,,0.00,Wunderground v.1.15,2013-01-19 07:49:00,
2013-01-19 02:59:00,38.9,31.3,29.86,SW,228,16.0,19.0,74,0.00,,,0.00,Wunderground v.1.15,2013-01-19 07:59:00,
2013-01-19 03:09:00,38.8,31.2,29.86,WSW,248,15.0,19.0,74,0.00,,,0.00,Wunderground v.1.15,2013-01-19 08:09:00,
2013-01-19 03:19:00,38.6,31.4,29.86,SW,232,15.0,15.0,75,0.00,,,0.00,Wunderground v.1.15,2013-01-19 08:19:00,
2013-01-19 03:29:00,38.5,31.3,29.85,SW,226,14.0,14.0,75,0.00,,,0.00,Wunderground v.1.15,2013-01-19 08:29:00,
2013-01-19 03:39:00,38.6,31.7,29.85,SW,217,13.0,13.0,76,0.00,,,0.00,Wunderground v.1.15,2013-01-19 08:39:00,
2013-01-19 03:49:00,38.5,31.6,29.85,SW,227,12.0,12.0,76,0.00,,,0.00,Wunderground v.1.15,2013-01-19 08:49:00,
2013-01-19 03:59:00,38.5,31.9,29.85,WSW,248,13.0,14.0,77,0.00,,,0.00,Wunderground v.1.15,2013-01-19 08:59:00,
2013-01-19 04:09:00,38.8,31.9,29.85,SW,226,13.0,13.0,76,0.00,,,0.00,Wunderground v.1.15,2013-01-19 09:09:00,
2013-01-19 04:19:00,38.5,31.9,29.85,SW,219,13.0,13.0,77,0.00,,,0.00,Wunderground v.1.15,2013-01-19 09:19:00,
2013-01-19 04:29:00,38.3,31.7,29.85,WSW,241,13.0,13.0,77,0.00,,,0.00,Wunderground v.1.15,2013-01-19 09:29:00,
2013-01-19 04:39:00,38.3,32.0,29.85,SW,231,12.0,12.0,78,0.00,,,0.00,Wunderground v.1.15,2013-01-19 09:39:00,
2013-01-19 04:49:00,38.2,31.9,29.85,WSW,241,12.0,15.0,78,0.00,,,0.00,Wunderground v.1.15,2013-01-19 09:49:00,
2013-01-19 04:59:00,38.3,32.0,29.85,SW,224,13.0,13.0,78,0.00,,,0.00,Wunderground v.1.15,2013-01-19 09:59:00,
2013-01-19 05:09:00,38.3,32.0,29.85,WSW,243,12.0,12.0,78,0.00,,,0.00,Wunderground v.1.15,2013-01-19 10:09:00,
2013-01-19 05:19:00,38.2,31.9,29.85,SW,233,12.0,13.0,78,0.00,,,0.00,Wunderground v.1.15,2013-01-19 10:19:00,
2013-01-19 05:29:00,38.2,31.9,29.85,SW,236,12.0,12.0,78,0.00,,,0.00,Wunderground v.1.15,2013-01-19 10:29:00,
2013-01-19 05:39:00,38.2,32.3,29.85,WSW,237,12.0,12.0,79,0.00,,,0.00,Wunderground v.1.15,2013-01-19 10:39:00,
2013-01-19 05:49:00,38.0,32.1,29.85,SW,234,11.0,14.0,79,0.00,,,0.00,Wunderground v.1.15,2013-01-19 10:49:00,
2013-01-19 05:59:00,38.2,32.6,29.85,SW,236,11.0,11.0,80,0.00,,,0.00,Wunderground v.1.15,2013-01-19 10:59:00,
2013-01-19 06:09:00,38.0,32.4,29.85,SW,220,12.0,12.0,80,0.00,,,0.00,Wunderground v.1.15,2013-01-19 11:09:00,
2013-01-19 07:49:00,38.3,32.4,29.85,SW,228,10.0,11.0,79,0.00,,,0.00,Wunderground v.1.15,2013-01-19 12:49:00,
2013-01-19 07:59:00,38.3,32.4,29.85,SW,232,11.0,11.0,79,0.00,,,0.00,Wunderground v.1.15,2013-01-19 12:59:00,
2013-01-19 08:09:00,38.2,32.6,29.85,SW,219,10.0,10.0,80,0.00,,,0.00,Wunderground v.1.15,2013-01-19 13:09:00,
2013-01-19 08:19:00,38.2,32.6,29.85,SW,228,11.0,11.0,80,0.00,,,0.00,Wunderground v.1.15,2013-01-19 13:19:00,
2013-01-19 08:29:00,38.2,32.6,29.85,SW,224,10.0,10.0,80,0.00,,,0.00,Wunderground v.1.15,2013-01-19 13:29:00,
2013-01-19 08:39:00,38.2,32.6,29.85,SW,232,10.0,10.0,80,0.00,,,0.00,Wunderground v.1.15,2013-01-19 13:39:00,
2013-01-19 08:49:00,38.3,32.7,29.85,SW,227,10.0,10.0,80,0.00,,,0.00,Wunderground v.1.15,2013-01-19 13:49:00,
2013-01-19 08:59:00,38.3,32.7,29.85,SW,221,11.0,11.0,80,0.00,,,0.00,Wunderground v.1.15,2013-01-19 13:59:00,
2013-01-19 09:09:00,38.5,32.9,29.85,SW,218,10.0,10.0,80,0.00,,,0.00,Wunderground v.1.15,2013-01-19 14:09:00,
2013-01-19 09:19:00,38.6,33.0,29.85,SW,231,10.0,10.0,80,0.00,,,0.00,Wunderground v.1.15,2013-01-19 14:19:00,
2013-01-19 09:29:00,39.1,32.8,29.85,SW,223,12.0,14.0,78,0.00,,,0.00,Wunderground v.1.15,2013-01-19 14:29:00,
2013-01-19 09:39:00,39.2,32.9,29.85,SW,217,12.0,12.0,78,0.00,,,0.00,Wunderground v.1.15,2013-01-19 14:39:00,
2013-01-19 09:49:00,39.6,33.0,29.84,SW,223,13.0,19.0,77,0.00,,,0.00,Wunderground v.1.15,2013-01-19 14:49:00,
2013-01-19 09:59:00,40.1,32.8,29.85,SW,226,14.0,14.0,75,0.00,,,0.00,Wunderground v.1.15,2013-01-19 14:59:00,
2013-01-19 10:09:00,40.3,32.7,29.85,SW,217,14.0,17.0,74,0.00,,,0.00,Wunderground v.1.15,2013-01-19 15:09:00,
2013-01-19 10:19:00,40.5,32.5,29.84,SW,230,14.0,14.0,73,0.00,,,0.00,Wunderground v.1.15,2013-01-19 15:19:00,
2013-01-19 10:29:00,40.6,32.6,29.84,SW,229,12.0,12.0,73,0.00,,,0.00,Wunderground v.1.15,2013-01-19 15:29:00,
2013-01-19 10:39:00,40.6,32.6,29.84,SW,233,13.0,15.0,73,0.00,,,0.00,Wunderground v.1.15,2013-01-19 15:39:00,
2013-01-19 10:49:00,40.8,32.8,29.83,SSW,213,14.0,14.0,73,0.00,,,0.00,Wunderground v.1.15,2013-01-19 15:49:00,
2013-01-19 10:59:00,41.2,32.9,29.83,SW,233,13.0,14.0,72,0.00,,,0.00,Wunderground v.1.15,2013-01-19 15:59:00,
2013-01-19 11:09:00,41.3,32.6,29.83,SW,216,14.0,14.0,71,0.00,,,0.00,Wunderground v.1.15,2013-01-19 16:09:00,
2013-01-19 11:19:00,41.3,32.6,29.82,SW,219,14.0,19.0,71,0.00,,,0.00,Wunderground v.1.15,2013-01-19 16:19:00,
2013-01-19 11:29:00,42.1,32.7,29.81,SW,219,15.0,18.0,69,0.00,,,0.00,Wunderground v.1.15,2013-01-19 16:29:00,
2013-01-19 11:39:00,42.3,32.8,29.81,WSW,244,15.0,20.0,69,0.00,,,0.00,Wunderground v.1.15,2013-01-19 16:39:00,
2013-01-19 11:49:00,42.1,32.7,29.80,SSW,213,14.0,19.0,69,0.00,,,0.00,Wunderground v.1.15,2013-01-19 16:49:00,
2013-01-19 11:59:00,41.9,32.1,29.78,SW,235,15.0,15.0,68,0.00,,,0.00,Wunderground v.1.15,2013-01-19 16:59:00,
2013-01-19 12:09:00,41.8,32.4,29.78,SW,227,14.0,14.0,69,0.00,,,0.00,Wunderground v.1.15,2013-01-19 17:09:00,
2013-01-19 12:19:00,42.1,31.9,29.77,SW,226,16.0,16.0,67,0.00,,,0.00,Wunderground v.1.15,2013-01-19 17:19:00,
2013-01-19 12:29:00,42.1,32.3,29.77,SW,227,13.0,13.0,68,0.00,,,0.00,Wunderground v.1.15,2013-01-19 17:29:00,
2013-01-19 12:39:00,42.1,31.9,29.77,SW,226,13.0,14.0,67,0.00,,,0.00,Wunderground v.1.15,2013-01-19 17:39:00,
2013-01-19 12:49:00,42.1,31.6,29.76,SW,219,14.0,18.0,66,0.00,,,0.00,Wunderground v.1.15,2013-01-19 17:49:00,
2013-01-19 13:09:00,42.1,31.6,29.75,WSW,240,16.0,17.0,66,0.00,,,0.00,Wunderground v.1.15,2013-01-19 18:09:00,
2013-01-19 13:19:00,41.9,31.7,29.74,WSW,248,16.0,24.0,67,0.00,,,0.00,Wunderground v.1.15,2013-01-19 18:19:00,
2013-01-19 13:39:00,41.9,31.7,29.73,SW,232,17.0,17.0,67,0.00,,,0.00,Wunderground v.1.15,2013-01-19 18:39:00,
2013-01-19 13:49:00,41.9,31.7,29.72,SW,231,16.0,16.0,67,0.00,,,0.00,Wunderground v.1.15,2013-01-19 18:49:00,
2013-01-19 13:59:00,41.9,31.7,29.70,SW,232,16.0,16.0,67,0.00,,,0.00,Wunderground v.1.15,2013-01-19 18:59:00,
2013-01-19 14:19:00,42.1,31.9,29.70,SW,232,17.0,17.0,67,0.00,,,0.00,Wunderground v.1.15,2013-01-19 19:19:00,
2013-01-19 14:39:00,42.1,32.3,29.70,SW,229,16.0,16.0,68,0.00,,,0.00,Wunderground v.1.15,2013-01-19 19:39:00,
2013-01-19 14:49:00,42.3,31.7,29.67,SW,225,14.0,14.0,66,0.00,,,0.00,Wunderground v.1.15,2013-01-19 19:49:00,
2013-01-19 14:59:00,42.6,32.0,29.67,SW,229,16.0,16.0,66,0.00,,,0.00,Wunderground v.1.15,2013-01-19 19:59:00,
2013-01-19 15:09:00,42.8,31.8,29.67,SW,233,15.0,18.0,65,0.00,,,0.00,Wunderground v.1.15,2013-01-19 20:09:00,
2013-01-19 15:29:00,43.1,32.1,29.66,SW,221,15.0,19.0,65,0.00,,,0.00,Wunderground v.1.15,2013-01-19 20:29:00,
2013-01-19 15:39:00,43.2,32.2,29.66,SW,229,15.0,15.0,65,0.00,,,0.00,Wunderground v.1.15,2013-01-19 20:39:00,
2013-01-19 15:49:00,43.5,32.1,29.64,SSW,213,13.0,13.0,64,0.00,,,0.00,Wunderground v.1.15,2013-01-19 20:49:00,
2013-01-19 15:59:00,43.6,32.2,29.63,SW,228,12.0,12.0,64,0.00,,,0.00,Wunderground v.1.15,2013-01-19 20:59:00,
2013-01-19 16:09:00,43.2,32.6,29.63,SW,228,11.0,11.0,66,0.00,,,0.00,Wunderground v.1.15,2013-01-19 21:09:00,
2013-01-19 16:19:00,43.2,33.0,29.65,WSW,242,9.0,12.0,67,0.00,,,0.00,Wunderground v.1.15,2013-01-19 21:19:00,
2013-01-19 16:29:00,43.2,33.0,29.65,WSW,248,10.0,11.0,67,0.00,,,0.00,Wunderground v.1.15,2013-01-19 21:29:00,
2013-01-19 16:39:00,43.5,32.9,29.65,SW,223,11.0,18.0,66,0.00,,,0.00,Wunderground v.1.15,2013-01-19 21:39:00,
2013-01-19 16:49:00,43.6,32.6,29.64,SW,233,13.0,13.0,65,0.00,,,0.00,Wunderground v.1.15,2013-01-19 21:49:00,
2013-01-19 16:59:00,43.8,32.8,29.63,WSW,240,13.0,19.0,65,0.00,,,0.00,Wunderground v.1.15,2013-01-19 21:59:00,
2013-01-19 17:09:00,43.2,33.0,29.63,WSW,247,12.0,12.0,67,0.00,,,0.00,Wunderground v.1.15,2013-01-19 22:09:00,
2013-01-19 17:19:00,43.2,33.0,29.66,WSW,246,14.0,17.0,67,0.00,,,0.00,Wunderground v.1.15,2013-01-19 22:19:00,
2013-01-19 17:29:00,43.1,33.3,29.65,SSW,213,15.0,15.0,68,0.00,,,0.00,Wunderground v.1.15,2013-01-19 22:29:00,
2013-01-19 17:39:00,43.1,33.6,29.65,SW,220,17.0,17.0,69,0.00,,,0.00,Wunderground v.1.15,2013-01-19 22:39:00,
2013-01-19 17:49:00,43.1,34.0,29.64,SW,231,18.0,18.0,70,0.00,,,0.00,Wunderground v.1.15,2013-01-19 22:49:00,
2013-01-19 17:59:00,43.1,34.0,29.62,SW,222,17.0,17.0,70,0.00,,,0.00,Wunderground v.1.15,2013-01-19 22:59:00,
2013-01-19 18:19:00,42.9,34.1,29.62,SW,227,15.0,20.0,71,0.00,,,0.00,Wunderground v.1.15,2013-01-19 23:19:00,
2013-01-19 18:29:00,43.1,34.3,29.63,SW,227,16.0,16.0,71,0.00,,,0.00,Wunderground v.1.15,2013-01-19 23:29:00,
2013-01-19 18:39:00,42.8,34.7,29.63,WSW,247,15.0,15.0,73,0.00,,,0.00,Wunderground v.1.15,2013-01-19 23:39:00,
2013-01-19 19:09:00,42.6,35.6,29.64,West,259,13.0,17.0,76,0.00,,,0.00,Wunderground v.1.15,2013-01-20 00:09:00,
2013-01-19 19:19:00,42.5,35.8,29.63,SW,216,14.0,24.0,77,0.00,,,0.00,Wunderground v.1.15,2013-01-20 00:19:00,
2013-01-19 19:29:00,42.8,35.8,29.61,SW,219,17.0,20.0,76,0.00,,,0.00,Wunderground v.1.15,2013-01-20 00:29:00,
2013-01-19 19:39:00,42.6,35.9,29.61,SW,231,15.0,20.0,77,0.00,,,0.00,Wunderground v.1.15,2013-01-20 00:39:00,
2013-01-19 19:49:00,42.6,35.9,29.60,SW,221,16.0,16.0,77,0.00,,,0.00,Wunderground v.1.15,2013-01-20 00:49:00,
2013-01-19 19:59:00,42.6,36.2,29.60,WSW,253,15.0,21.0,78,0.00,,,0.00,Wunderground v.1.15,2013-01-20 00:59:00,
2013-01-19 20:09:00,42.8,36.1,29.60,WSW,247,17.0,17.0,77,0.00,,,0.00,Wunderground v.1.15,2013-01-20 01:09:00,
2013-01-19 20:19:00,42.6,36.2,29.60,WSW,246,16.0,16.0,78,0.00,,,0.00,Wunderground v.1.15,2013-01-20 01:19:00,
2013-01-19 20:29:00,42.6,36.9,29.60,WSW,238,18.0,19.0,80,0.00,,,0.00,Wunderground v.1.15,2013-01-20 01:29:00,
2013-01-19 20:39:00,42.5,36.8,29.60,WSW,254,16.0,18.0,80,0.00,,,0.00,Wunderground v.1.15,2013-01-20 01:39:00,
2013-01-19 20:59:00,42.5,36.4,29.58,WSW,248,16.0,16.0,79,0.00,,,0.00,Wunderground v.1.15,2013-01-20 01:59:00,
2013-01-19 21:09:00,42.6,36.2,29.58,WSW,248,16.0,19.0,78,0.00,,,0.00,Wunderground v.1.15,2013-01-20 02:09:00,
2013-01-19 21:29:00,43.1,35.4,29.57,West,263,18.0,18.0,74,0.00,,,0.00,Wunderground v.1.15,2013-01-20 02:29:00,
2013-01-19 21:39:00,43.2,34.8,29.57,WSW,253,19.0,21.0,72,0.00,,,0.00,Wunderground v.1.15,2013-01-20 02:39:00,
2013-01-19 21:49:00,43.3,34.2,29.57,West,259,21.0,21.0,70,0.00,,,0.00,Wunderground v.1.15,2013-01-20 02:49:00,
2013-01-19 21:59:00,43.2,33.7,29.57,West,263,22.0,22.0,69,0.00,,,0.00,Wunderground v.1.15,2013-01-20 02:59:00,
2013-01-19 22:09:00,42.5,33.4,29.57,WSW,250,20.0,20.0,70,0.00,,,0.00,Wunderground v.1.15,2013-01-20 03:09:00,
2013-01-19 22:19:00,42.1,32.7,29.57,West,263,19.0,22.0,69,0.00,,,0.00,Wunderground v.1.15,2013-01-20 03:19:00,
2013-01-19 22:29:00,42.1,32.7,29.57,West,265,21.0,21.0,69,0.00,,,0.00,Wunderground v.1.15,2013-01-20 03:29:00,
2013-01-19 22:39:00,41.8,31.6,29.57,WSW,247,20.0,21.0,67,0.00,,,0.00,Wunderground v.1.15,2013-01-20 03:39:00,
2013-01-19 22:49:00,41.3,31.2,29.57,West,265,20.0,20.0,67,0.00,,,0.00,Wunderground v.1.15,2013-01-20 03:49:00,
2013-01-19 22:59:00,41.3,30.8,29.57,West,270,20.0,20.0,66,0.00,,,0.00,Wunderground v.1.15,2013-01-20 03:59:00,
2013-01-19 23:09:00,40.8,28.8,29.57,West,279,18.0,19.0,62,0.00,,,0.00,Wunderground v.1.15,2013-01-20 04:09:00,
2013-01-19 23:19:00,40.5,27.3,29.57,WNW,289,20.0,20.0,59,0.00,,,0.00,Wunderground v.1.15,2013-01-20 04:19:00,
2013-01-19 23:29:00,40.6,27.0,29.57,WSW,241,20.0,27.0,58,0.00,,,0.00,Wunderground v.1.15,2013-01-20 04:29:00,
2013-01-19 23:39:00,40.1,24.3,29.57,WSW,256,23.0,23.0,53,0.00,,,0.00,Wunderground v.1.15,2013-01-20 04:39:00,
2013-01-19 23:49:00,39.6,22.9,29.58,West,267,23.0,23.0,51,0.00,,,0.00,Wunderground v.1.15,2013-01-20 04:49:00,